User: anonymous   Login
Location: Caltech
(34.1382°N, 118.1253°W)
Time: 17:43:52
(UTC-08:00)
Language:

HO-68 - Orbit

View from above orbital plane
View from above orbital plane
View from above satellite
View from above satellite

Ground track
Ground track

The orbit data is extracted from the following two-line orbital elements,

1 36122U 09072B   16044.56136181 -.00000059  00000-0 -43517-4 0  9998
2 36122 100.1610  85.3802 0006882 282.8493  77.1856 13.16332392296218
Epoch (UTC): 13 February 2016 13:28:21
Eccentricity: 0.0006882
inclination: 100.1610°
perigee height: 1193 km
apogee height: 1204 km
right ascension of ascending node: 85.3802°
argument of perigee: 282.8493°
revolutions per day: 13.16332392
mean anomaly at epoch: 77.1856°
orbit number at epoch: 29621

The dashed part of the orbit path shows where the satellite is in the earth's shadow,  

DLR